Regional Weather Roundup
Issued by NWS

Home | Current Version | Previous Version | Text Only | Print | Product List | Glossary On
Versions: 1 2 3 4 5 6 7 8 9 10 11 12 13 14 15 16 17 18 19 20 21 22 23 24 25 26 27 28 29 30 31 32 33 34 35 36 37 38 39 40 41 42 43 44 45 46 47 48 49 50
000
ASUS46 KSEW 231710
RWRWA

WASHINGTON REGIONAL WEATHER ROUNDUP
NATIONAL WEATHER SERVICE SEATTLE WA
1000 AM PDT TUE SEP 23 2014

NOTE:"FAIR" INDICATES FEW OR NO CLOUDS BELOW 12,000 FEET WITH NO
SIGNIFICANT WEATHER AND/OR OBSTRUCTIONS TO VISIBILITY.

WAZ505-507>509-231800-
SEATTLE, TACOMA, EVERETT, AND VICINITY

CITY           SKY/WX    TMP DP  RH WIND       PRES   REMARKS
EVERETT        CLOUDY    64  56  75 S8        29.84R
BOEING FIELD   CLOUDY    65  59  81 CALM      29.84R
RENTON         CLOUDY    62  59  90 S6        29.84R
SEATAC AIRPORT CLOUDY    62  57  83 S6        29.86R
JBLM-MCCHORD   LGT RAIN  60  60  99 CALM      29.86R
PUYALLUP       NOT AVBL
JBLM-FT LEWIS  LGT RAIN  59  59 100 SE1       29.85R
TACOMA NARROWS LGT RAIN  59  57  93 W3        29.85F FOG
$$

WAZ001-503-506-510-514-515-231800-
NORTH INTERIOR

CITY           SKY/WX    TMP DP  RH WIND       PRES   REMARKS
BELLINGHAM     CLOUDY    62  58  86 CALM      29.80F
FRIDAY HARBOR    N/A    N/A N/A N/A MISG      29.81R
EASTSOUND      LGT RAIN  59  57  94 CALM      29.79R
PORT ANGELES   LGT RAIN  56  55  97 CALM      29.80S FOG
NAS WHIDBEY    CLOUDY    68  59  73 SE14      29.80S
BURLINGTON     MOSUNNY   64  61  88 E6        29.81S
$$

WAZ020-022-039-040-504-511-512-231800-
SOUTHWEST INTERIOR

CITY           SKY/WX    TMP DP  RH WIND       PRES   REMARKS
SHELTON        LGT RAIN  59  57  93 CALM      29.83S FOG
OLYMPIA        LGT RAIN  59  58  96 S5        29.86S
CHEHALIS       LGT RAIN  59  59 100 CALM      29.85S
KELSO          CLOUDY    61  55  82 S6        29.88F
VANCOUVER      CLOUDY    64  58  80 SE7       29.85F
SCAPPOOSE, OR  CLOUDY    61  58  90 CALM      29.85F
PORTLAND, OR   CLOUDY    64  59  83 E5        29.86F
$$

WAZ021-516-517-231800-
WASHINGTON COAST

CITY           SKY/WX    TMP DP  RH WIND       PRES   REMARKS
FORKS          LGT RAIN  60  59  96 SE6       29.78S FOG
HOQUIAM        CLOUDY    60  60 100 E12       29.82R FOG
ASTORIA, OR    LGT RAIN  61  60  97 W3        29.81S
$$

WAZ019-023-024-040-518-519-231800-
CASCADE MOUNTAINS AND COLUMBIA GORGE

CITY           SKY/WX    TMP DP  RH WIND       PRES   REMARKS
STAMPEDE PASS  CLOUDY    56  45  66 CALM      29.95
TROUTDALE, OR  CLOUDY    64  55  72 CALM      29.85F
THE DALLES, OR CLOUDY    65  53  65 CALM      29.86F
$$

WAZ026-027-041>044-520-521-231800-
EAST SLOPES

CITY           SKY/WX    TMP DP  RH WIND       PRES   REMARKS
OMAK           MOSUNNY   66  52  60 N6        29.90S
WENATCHEE      CLOUDY    66  48  52 CALM      29.88S
ELLENSBURG     CLOUDY    64  53  67 CALM      29.89F
YAKIMA         CLOUDY    66  50  56 W5        29.87S
$$

WAZ028-034-035-231800-
COLUMBIA BASIN

CITY           SKY/WX    TMP DP  RH WIND       PRES   REMARKS
EPHRATA        PTSUNNY   71  54  54 N7        29.87S
MOSES LAKE     PTSUNNY   71  57  61 E5        29.87F
PASCO          MOSUNNY   69  61  75 W3        29.85R
HERMISTON, OR  MOSUNNY   69  55  60 W5        29.85S
$$

WAZ036>038-231800-
NORTHEAST WASHINGTON

CITY           SKY/WX    TMP DP  RH WIND       PRES   REMARKS
SPOKANE GEIGER LGT RAIN  64  56  75 N6        29.95S
SPOKANE FELTS  CLOUDY    67  55  65 CALM      29.95S
FAIRCHILD AFB  CLOUDY    64  57  77 NE7       29.95S
COEURDALENE,ID MOSUNNY   66  55  68 E6        29.95S
DEER PARK      PTSUNNY   69  52  54 S7        29.96R
$$

WAZ029>033-231800-
SOUTHEAST WASHINGTON

CITY           SKY/WX    TMP DP  RH WIND       PRES   REMARKS
PULLMAN        PTSUNNY   66  54  65 E15       29.95F
LEWISTON, ID   CLOUDY    69  59  70 E8        29.91F
WALLA WALLA    CLOUDY    74  57  55 W6        29.87R
PENDLETON, OR  PTSUNNY   70  57  63 S8        29.87R
$$


USA.gov is the U.S. government's official web portal to all federal, state and local government web resources and services.